Starlink 6237

operational
NORAD ID: 57055 Int'l Des: 2023-088 Owner: SPXS Country: US Constellation: starlink
LEOCIRCULAR

Starlink 6237について

説明を読み込み中...

リアルタイム位置

3D地球を読み込み中...

次回通過

高度履歴

Altitude vs Time

uPlot chart will show altitude changes over time

軌道要素

1 57055U 23088H 25307.68582975 .00000744 00000-0 70173-4 0 9997
2 57055 43.0041 72.3030 0001151 270.7389 89.3322 15.02534893131412
Epoch: Nov 3, 2025 • Age: 11 hours

現在のステータス

高度 559.2 km
速度 7.59 km/s
衛星直下点 23.55°N, 3.01°W
打ち上げ日 Jun 22, 2023
運用期間 2.3 years
タイプ internet

技術仕様

分類 Payload
質量 305.00 kg
乾燥質量 290.00 kg
総質量 305.00 kg
長さ 0.20 m
直径 2.80 m
スパン 9.00 m
形状 Box + pan
製造者 SPXS
バスタイプ Starlink
フェーズステータス In Orbit
所有者/国 SPXS/US

大規模コンステレーション

Loading constellations...